Hourly Weather Barra de Sao Francisco

Today, 6 May, Thursday

Time Temperature Precipitation Wind Pressure Humidity
00:00 +22°C° 0 mm 1 mps 739 mmHg 88%
01:00 +19°C° 0 mm 0 mps 739 mmHg 90%
02:00 +19°C° 0 mm 0 mps 738 mmHg 92%
03:00 +18°C° 0 mm 0 mps 738 mmHg 94%
04:00 +18°C° 0 mm 0 mps 738 mmHg 94%
05:00 +18°C° 0 mm 0 mps 739 mmHg 94%
06:00 +18°C° 0 mm 0 mps 739 mmHg 94%
07:00 +20°C° 0 mm 0 mps 739 mmHg 84%
08:00 +23°C° 0 mm 0 mps 740 mmHg 74%
09:00 +25°C° 0 mm 0 mps 740 mmHg 64%
10:00 +28°C° 0 mm 1 mps 740 mmHg 58%
11:00 +30°C° 0 mm 1 mps 739 mmHg 53%
12:00 +31°C° 0 mm 1 mps 739 mmHg 47%
13:00 +32°C° 0 mm 1 mps 738 mmHg 44%
14:00 +32°C° 0 mm 1 mps 738 mmHg 42%
15:00 +32°C° 0 mm 1 mps 737 mmHg 39%
16:00 +30°C° 0 mm 1 mps 737 mmHg 44%
17:00 +27°C° 0 mm 0 mps 737 mmHg 49%
18:00 +25°C° 0 mm 0 mps 737 mmHg 54%
19:00 +26°C° 0 mm 1 mps 738 mmHg 59%
20:00 +25°C° 0 mm 1 mps 738 mmHg 65%
21:00 +24°C° 0 mm 2 mps 739 mmHg 70%
22:00 +23°C° 0 mm 1 mps 739 mmHg 77%
23:00 +22°C° 0 mm 1 mps 739 mmHg 83%

Tomorrow, 7 May, Friday

Time Temperature Precipitation Wind Pressure Humidity
00:00 +22°C° 0 mm 1 mps 739 mmHg 90%
01:00 +21°C° 0 mm 1 mps 738 mmHg 91%
02:00 +19°C° 0 mm 0 mps 738 mmHg 93%
03:00 +19°C° 0 mm 0 mps 738 mmHg 94%
04:00 +19°C° 0 mm 0 mps 738 mmHg 94%
05:00 +19°C° 0 mm 0 mps 738 mmHg 94%
06:00 +19°C° 0 mm 0 mps 738 mmHg 94%
07:00 +21°C° 0 mm 0 mps 739 mmHg 84%
08:00 +26°C° 0 mm 1 mps 739 mmHg 73%
09:00 +28°C° 0 mm 1 mps 740 mmHg 63%
10:00 +29°C° 0 mm 1 mps 739 mmHg 56%
11:00 +31°C° 0 mm 1 mps 739 mmHg 50%
12:00 +33°C° 0 mm 1 mps 739 mmHg 43%
13:00 +33°C° 0 mm 1 mps 738 mmHg 41%
14:00 +33°C° 0 mm 1 mps 738 mmHg 40%
15:00 +31°C° 0 mm 0 mps 737 mmHg 38%
16:00 +31°C° 0 mm 1 mps 738 mmHg 45%
17:00 +29°C° 0 mm 1 mps 738 mmHg 53%
18:00 +27°C° 0 mm 1 mps 738 mmHg 60%
19:00 +26°C° 0.2 mm 1 mps 739 mmHg 65%
20:00 +25°C° 0.2 mm 1 mps 739 mmHg 70%
21:00 +24°C° 0.2 mm 1 mps 740 mmHg 75%
22:00 +24°C° 0.3 mm 1 mps 740 mmHg 79%
23:00 +24°C° 0.3 mm 1 mps 740 mmHg 83%

Day after tomorrow, 8 May, Saturday

Time Temperature Precipitation Wind Pressure Humidity
00:00 +23°C° 0.3 mm 2 mps 740 mmHg 87%
01:00 +23°C° 0.3 mm 1 mps 740 mmHg 90%
02:00 +22°C° 0.3 mm 1 mps 740 mmHg 93%
03:00 +22°C° 0.3 mm 1 mps 741 mmHg 96%
04:00 +21°C° 0.1 mm 1 mps 741 mmHg 96%
05:00 +21°C° 0.1 mm 1 mps 741 mmHg 96%
06:00 +19°C° 0.1 mm 0 mps 741 mmHg 96%
07:00 +22°C° 0 mm 1 mps 742 mmHg 90%
08:00 +24°C° 0 mm 1 mps 743 mmHg 83%
09:00 +25°C° 0 mm 2 mps 743 mmHg 77%
10:00 +26°C° 0 mm 2 mps 743 mmHg 69%
11:00 +28°C° 0 mm 3 mps 743 mmHg 60%
12:00 +30°C° 0 mm 4 mps 742 mmHg 52%
13:00 +29°C° 0 mm 4 mps 742 mmHg 55%
14:00 +28°C° 0 mm 4 mps 741 mmHg 57%
15:00 +27°C° 0 mm 4 mps 741 mmHg 60%
16:00 +26°C° 0 mm 4 mps 741 mmHg 64%
17:00 +25°C° 0 mm 4 mps 742 mmHg 69%
18:00 +23°C° 0 mm 4 mps 742 mmHg 74%
19:00 +22°C° 0 mm 3 mps 743 mmHg 77%
20:00 +21°C° 0 mm 3 mps 743 mmHg 81%
21:00 +21°C° 0 mm 2 mps 743 mmHg 85%
22:00 +20°C° 0 mm 2 mps 743 mmHg 87%
23:00 +21°C° 0 mm 1 mps 743 mmHg 89%

9 May, Sunday

Time Temperature Precipitation Wind Pressure Humidity
00:00 +20°C° 0 mm 1 mps 743 mmHg 91%
01:00 +20°C° 0 mm 1 mps 743 mmHg 91%
02:00 +20°C° 0 mm 1 mps 742 mmHg 91%
03:00 +20°C° 0 mm 1 mps 742 mmHg 91%
04:00 +20°C° 0 mm 1 mps 742 mmHg 90%
05:00 +20°C° 0 mm 1 mps 742 mmHg 89%
06:00 +20°C° 0 mm 1 mps 742 mmHg 88%
07:00 +21°C° 0 mm 2 mps 743 mmHg 80%
08:00 +24°C° 0 mm 3 mps 743 mmHg 72%
09:00 +25°C° 0 mm 4 mps 744 mmHg 64%
10:00 +26°C° 0 mm 4 mps 743 mmHg 62%
11:00 +26°C° 0 mm 4 mps 743 mmHg 59%
12:00 +27°C° 0 mm 4 mps 743 mmHg 56%
13:00 +27°C° 0 mm 3 mps 742 mmHg 57%
14:00 +26°C° 0 mm 3 mps 742 mmHg 59%
15:00 +26°C° 0 mm 3 mps 741 mmHg 60%
16:00 +25°C° 0 mm 3 mps 742 mmHg 66%
17:00 +24°C° 0 mm 3 mps 742 mmHg 72%
18:00 +22°C° 0 mm 3 mps 742 mmHg 78%
19:00 +21°C° 0.1 mm 2 mps 743 mmHg 82%
20:00 +21°C° 0.1 mm 2 mps 743 mmHg 85%
21:00 +21°C° 0.1 mm 1 mps 743 mmHg 88%
22:00 +21°C° 0 mm 1 mps 743 mmHg 89%
23:00 +21°C° 0 mm 1 mps 743 mmHg 91%

10 May, Monday

Time Temperature Precipitation Wind Pressure Humidity
00:00 +20°C° 0 mm 1 mps 743 mmHg 92%
01:00 +20°C° 0 mm 1 mps 743 mmHg 93%
02:00 +19°C° 0 mm 1 mps 742 mmHg 94%
03:00 +19°C° 0 mm 1 mps 742 mmHg 95%
04:00 +19°C° 0 mm 1 mps 742 mmHg 95%
05:00 +18°C° 0 mm 1 mps 742 mmHg 96%
06:00 +18°C° 0 mm 1 mps 743 mmHg 96%
07:00 +20°C° 0 mm 1 mps 743 mmHg 86%
08:00 +21°C° 0 mm 2 mps 743 mmHg 76%
09:00 +24°C° 0 mm 3 mps 744 mmHg 66%
10:00 +25°C° 0 mm 3 mps 743 mmHg 61%
11:00 +26°C° 0 mm 3 mps 743 mmHg 57%
12:00 +27°C° 0 mm 3 mps 742 mmHg 52%
13:00 +26°C° 0 mm 3 mps 742 mmHg 55%
14:00 +26°C° 0 mm 3 mps 741 mmHg 57%
15:00 +25°C° 0 mm 3 mps 741 mmHg 59%
16:00 +24°C° 0 mm 3 mps 741 mmHg 63%
17:00 +22°C° 0 mm 3 mps 741 mmHg 67%
18:00 +21°C° 0 mm 2 mps 741 mmHg 71%
19:00 +21°C° 0 mm 2 mps 742 mmHg 72%
20:00 +20°C° 0 mm 3 mps 742 mmHg 73%
21:00 +20°C° 0 mm 3 mps 742 mmHg 75%
22:00 +20°C° 0 mm 2 mps 742 mmHg 75%
23:00 +20°C° 0 mm 2 mps 742 mmHg 75%

11 May, Tuesday

Time Temperature Precipitation Wind Pressure Humidity
00:00 +20°C° 0 mm 1 mps 742 mmHg 75%
01:00 +19°C° 0 mm 1 mps 741 mmHg 79%
02:00 +18°C° 0 mm 1 mps 741 mmHg 83%
03:00 +15°C° 0 mm 0 mps 741 mmHg 87%
04:00 +15°C° 0 mm 0 mps 741 mmHg 87%
05:00 +15°C° 0 mm 0 mps 741 mmHg 88%
06:00 +14°C° 0 mm 0 mps 741 mmHg 89%
07:00 +19°C° 0 mm 1 mps 742 mmHg 79%
08:00 +21°C° 0 mm 1 mps 742 mmHg 68%
09:00 +23°C° 0 mm 1 mps 743 mmHg 58%
10:00 +25°C° 0 mm 1 mps 742 mmHg 54%
11:00 +26°C° 0 mm 1 mps 742 mmHg 49%
12:00 +26°C° 0 mm 0 mps 741 mmHg 45%
13:00 +26°C° 0 mm 0 mps 740 mmHg 44%
14:00 +26°C° 0 mm 0 mps 740 mmHg 43%
15:00 +26°C° 0 mm 0 mps 739 mmHg 42%
16:00 +24°C° 0 mm 0 mps 739 mmHg 48%
17:00 +22°C° 0 mm 0 mps 739 mmHg 55%
18:00 +20°C° 0 mm 0 mps 739 mmHg 61%
19:00 +19°C° 0 mm 0 mps 740 mmHg 65%
20:00 +18°C° 0 mm 0 mps 740 mmHg 70%
21:00 +19°C° 0 mm 1 mps 741 mmHg 74%
22:00 +18°C° 0 mm 1 mps 740 mmHg 77%
23:00 +16°C° 0 mm 0 mps 740 mmHg 80%
Show more